This demonstration page uses our WeatherBlox Daily Observations layout. Learn more.

Left ArrowRight Arrow

47.50024, -111.30081

Hourly Observations for June 9, 2020

Temp ( °F °C ) Dew Point ( °F °C ) Humidity (%) Winds ( mph kmh ) Pressure ( in mb ) Visibility ( mi km ) Precip ( " mm )
12:53 am 00:53 Clear 41 5 34 1.1 76 76 SW 12 19 30.06 1018 10 16 0.00 0.00
1:53 am 01:53 Clear 41 5 32 0 70 70 SW 12 19 30.06 1018 10 16 0.00 0.00
2:53 am 02:53 Clear 41 5 32 0 70 70 SSW 9 15 30.09 1019 10 16 0.00 0.00
3:53 am 03:53 Clear 40 4.4 31 -0.6 70 70 SSW 12 19 30.09 1019 10 16 0.00 0.00
4:53 am 04:53 Clear 40 4.4 31 -0.6 70 70 SW 12 19 30.10 1019 10 16 0.00 0.00
5:53 am 05:53 Sunny 39 3.9 30 -1.1 70 70 SW 13 20 30.10 1019 10 16 0.00 0.00
6:53 am 06:53 Sunny 41 5 32 0 70 70 SW 10 17 30.11 1020 10 16 0.00 0.00
7:53 am 07:53 Sunny 49 9.4 33 0.6 55 55 SW 17 28 30.08 1019 10 16 0.00 0.00
8:53 am 08:53 Sunny 52 11.1 30 -1.1 43 43 WSW 21 33 30.08 1019 10 16 0.00 0.00
9:53 am 09:53 Sunny 55 12.8 30 -1.1 38 38 SW 21 33 30.08 1019 10 16 0.00 0.00
10:53 am 10:53 Sunny 57 13.9 31 -0.6 37 37 W 17 28 30.09 1019 10 16 0.00 0.00
11:53 am 11:53 Mostly Cloudy 58 14.4 30 -1.1 35 35 W 17 28 30.08 1019 10 16 0.00 0.00
12:53 pm 12:53 Mostly Sunny 61 16.1 30 -1.1 31 31 WSW 20 31 30.07 1018 10 16 0.00 0.00
1:53 pm 13:53 Mostly Sunny 60 15.6 27 -2.8 28 28 WSW 17 28 30.07 1018 10 16 0.00 0.00
2:53 pm 14:53 Mostly Sunny 62 16.7 29 -1.7 29 29 WSW 18 30 30.06 1018 10 16 0.00 0.00
3:53 pm 15:53 Mostly Cloudy 60 15.6 28 -2.2 30 30 WSW 17 28 30.06 1018 10 16 0.00 0.00
4:53 pm 16:53 Mostly Sunny 61 16.1 32 0 34 34 WSW 21 33 30.05 1018 10 16 0.00 0.00
5:53 pm 17:53 Mostly Sunny 59 15 32 0 36 36 WSW 21 33 30.06 1018 10 16 0.00 0.00
6:53 pm 18:53 Sunny 59 15 34 1.1 39 39 WSW 24 39 30.06 1018 10 16 0.00 0.00
7:53 pm 19:53 Sunny 57 13.9 35 1.7 44 44 SW 21 33 30.04 1017 10 16 0.00 0.00
8:53 pm 20:53 Sunny 53 11.7 37 2.8 55 55 SW 13 20 30.05 1018 10 16 0.00 0.00
9:53 pm 21:53 Clear 49 9.4 37 2.8 64 64 SW 12 19 30.07 1018 10 16 0.00 0.00
10:53 pm 22:53 Clear 48 8.9 37 2.8 66 66 SW 10 17 30.07 1018 10 16 0.00 0.00
11:53 pm 23:53 Clear 48 8.9 37 2.8 66 66 SW 13 20 30.07 1018 10 16 0.00 0.00

Powered by AerisWeather